Terug naar catalogus

THORAD AGENA D DEB

ActiefLEO
NORAD 4217·DEBRIS·🇺🇸 United States

Gelanceerd Sep 30, 1969 vanaf Vandenberg Space Force Base

Loading…

Volgende Passages (komende 24 uur)

TLE

VersSource: Space-Track

Epoch: Sep 14, 2026, 13:01 UTC

1 04217U 69082CG  26257.54243999  .00000599  00000-0  19818-3 0  9999
2 04217  70.0379 304.2778 0036568 249.1998 110.5214 14.42155701960686

Volg THORAD AGENA D DEB in realtime met AllMySat

Download on the App Store